Tracking 28531 objects as of 27-Feb-2024
HD Live streaming from Space Station
objects crossing your sky now

TITAN 3C TRANSTAGE DEB

Track TITAN 3C TRANSTAGE DEB now!


NORAD ID: 43447
Int'l Code: 1969-013G
Perigee: 36,100.7 km
Apogee: 37,290.1 km
Inclination: 1.0 °
Period: 1,482.4 minutes
Semi major axis: 43066 km
RCS: Unknown
Launch date: February 9, 1969
Source: United States (US)
Launch site: AIR FORCE EASTERN TEST RANGE (AFETR)

Note: This is SATELLITE DEBRIS
Your satellite tracking list
Your tracking list is empty




NASA's NSSDC Master Catalog

Two Line Element Set (TLE):
1 43447U 69013G   24057.79315149 -.00000086  00000-0  00000-0 0  9993
2 43447   0.9710 276.1338 0138092 177.4664 267.9465  0.97139254 21090
Source of the keplerian elements: AFSPC